Weather History for Bekescsaba, Hungary

Change the Weather History Date:

Sunday, March 16, 2014

  Actual Average Record
Temperature  
Mean Temperature 46 °F -  
Max Temperature 55 °F - - ()
Min Temperature 37 °F - - ()
Degree Days  
Heating Degree Days 19    
Moisture  
Dew Point 39 °F    
Average Humidity 68    
Maximum Humidity 81    
Minimum Humidity 53    
Precipitation  
Precipitation 0.08 in - - ()
Sea Level Pressure  
Sea Level Pressure 29.78 in    
Wind  
Wind Speed 16 mph ()    
Max Wind Speed 29 mph    
Max Gust Speed 40 mph    
Visibility 8.3 miles    
Events Rain    
T = Trace of Precipitation, MM = Missing Value Source: Averaged Metar Reports

Daily Weather History Graph

Daily Weather History Graph

Search for Another Location

Airport:

Trip Planner

Search our weather history database for the weather conditions in past years. The results will help you decide how hot, cold, wet, or windy it might be!

Date:

Astronomy

Mar. 16, 2014 Rise Set
Actual Time 5:46 AM CET 5:42 PM CET
Civil Twilight 5:16 AM CET 6:12 PM CET
Nautical Twilight 4:41 AM CET 6:47 PM CET
Astronomical Twilight 4:05 AM CET 7:23 PM CET
Moon 5:43 PM CET (3/16) 5:20 AM CET (3/16)
Length of Visible Light 12h 55m
Length of Day
11h 55m
Full, 100% of the Moon is Illuminated
Mar 16
Full
Mar 16
Full
Mar 24
Last Quarter
Mar 30
New
Apr 7
First Quarter

Hourly Weather History & Observations

Time (CET) Temp. Windchill Dew Point Humidity Pressure Visibility Wind Dir Wind Speed Gust Speed Precip Events Conditions
12:00 AM 40 °F - 35 °F 75% 29.87 in - WNW 17.9 mph - -  
1:00 AM 39 °F - 35 °F 78% 29.89 in - WNW 13.4 mph - -  
2:00 AM 39 °F - 34 °F 76% 29.89 in - WNW 11.2 mph - -  
3:00 AM 40 °F - 34 °F 73% 29.88 in - West 13.4 mph - -  
4:00 AM 41 °F - 35 °F 71% 29.87 in - West 11.2 mph - -  
4:45 AM 41.0 °F 32.8 °F 35.6 °F 81% 29.86 in - West 16.1 mph - N/A   Clear
5:00 AM 41 °F - 35 °F 71% 29.86 in 12 mi West 15.7 mph - -   Partly Cloudy
5:45 AM 41.0 °F 33.1 °F 35.6 °F 81% 29.86 in - WSW 15.0 mph - N/A   Clear
6:00 AM 41 °F - 35 °F 73% 29.86 in 12 mi WSW 13.4 mph - -   Partly Cloudy
6:45 AM 42.8 °F 34.8 °F 35.6 °F 76% 29.83 in 6.2 mi WSW 17.3 mph - N/A   Overcast
7:00 AM 43 °F - 35 °F 63% 29.84 in 31 mi WSW 17.9 mph - -   Partly Cloudy
7:45 AM 42.8 °F 34.8 °F 35.6 °F 76% 29.83 in 6.2 mi WSW 17.3 mph - N/A   Overcast
8:00 AM 44 °F - 35 °F 63% 29.83 in 31 mi WSW 17.9 mph - -   Partly Cloudy
9:00 AM 44 °F - 37 °F 69% 29.82 in - WSW 15.7 mph - -  
9:45 AM 44.6 °F 36.9 °F 39.2 °F 81% 29.80 in 6.2 mi WSW 18.4 mph - N/A Rain Light Rain
10:00 AM 44 °F - 40 °F 79% 29.81 in 16 mi WSW 17.9 mph - - Rain Light Rain
11:00 AM 44 °F - 39 °F 77% 29.79 in - WSW 24.6 mph - -  
12:00 PM 45 °F - 40 °F 78% 29.77 in - WSW 24.6 mph - -  
12:45 PM 48.2 °F - 41.0 °F 76% 29.74 in 6.2 mi WSW 24.2 mph - N/A   Overcast
1:00 PM 48 °F - 41 °F 68% 29.73 in 31 mi WSW 24.6 mph - - Rain Light Rain
1:45 PM 53.6 °F - 42.8 °F 67% 29.68 in 6.2 mi West 28.8 mph 40.3 mph N/A   Mostly Cloudy
2:00 PM 54 °F - 42 °F 54% 29.69 in 37 mi West 29.1 mph - -   Partly Cloudy
2:45 PM 53.6 °F - 41.0 °F 62% 29.68 in - WSW 23.0 mph - N/A   Clear
3:00 PM 53 °F - 42 °F 55% 29.68 in 37 mi WSW 22.4 mph - -   Partly Cloudy
3:45 PM 53.6 °F - 42.8 °F 67% 29.65 in 6.2 mi WSW 21.9 mph - N/A   Overcast
4:00 PM 54 °F - 43 °F 55% 29.66 in 37 mi WSW 20.1 mph - -   Partly Cloudy
5:00 PM 54 °F - 44 °F 60% 29.67 in - WSW 13.4 mph - -  
6:00 PM 56 °F - 44 °F 53% 29.68 in - West 17.9 mph - -  
6:45 PM 55.4 °F - 44.6 °F 67% 29.68 in 6.2 mi West 16.1 mph - N/A   Overcast
7:00 PM 55 °F - 44 °F 56% 29.69 in 31 mi West 15.7 mph - -   Partly Cloudy
8:00 PM 55 °F - 44 °F 55% 29.71 in - West 17.9 mph - -  
9:00 PM 54 °F - 43 °F 58% 29.74 in - West 17.9 mph - -  
10:00 PM 55 °F - 44 °F 58% 29.77 in - West 20.1 mph - -  
11:00 PM 55 °F - 44 °F 58% 29.80 in - WNW 20.1 mph - -